Regional Weather Roundup
Issued by NWS

Home | Current Version | Previous Version | Graphics & Text | Print | Product List | Glossary On
Versions: 1 2 3 4 5 6 7 8 9 10 11 12 13 14 15 16 17 18 19 20 21 22 23 24 25 26 27 28 29 30 31 32 33 34 35 36 37 38 39 40 41 42 43 44 45 46 47 48 49 50
773
ASUS45 KBOI 292010
RWRID

IDAHO REGIONAL WEATHER ROUNDUP
NATIONAL WEATHER SERVICE BOISE ID
200 PM MDT FRI JUL 29 2016

NOTE: "FAIR" INDICATES FEW OR NO CLOUDS BELOW 12000 FEET
WITH NO SIGNIFICANT WEATHER AND/OR OBSTRUCTIONS TO VISIBILITY

IDZ012-014-292100-
SOUTHWEST IDAHO


CITY           SKY/WX    TMP DP  RH WIND       PRES   REMARKS
BOISE          SUNNY     96  42  15 N7G17     29.95F HX  92
CALDWELL       SUNNY     94  51  23 W5        29.93F HX  91
MOUNTAIN HOME  SUNNY     98  41  13 NW3       29.94F HX  94
$$

IDZ016-017-292100-
SOUTHCENTRAL IDAHO


CITY           SKY/WX    TMP DP  RH WIND       PRES   REMARKS
BURLEY         SUNNY     89  48  24 VRB6      30.03F
JEROME         SUNNY     91  46  21 SW9       30.04F
TWIN FALLS     SUNNY     93  41  16 W9        30.04F
$$

IDZ019>023-292100-
SOUTHEAST IDAHO


CITY           SKY/WX    TMP DP  RH WIND       PRES   REMARKS
IDAHO FALLS    SUNNY     85  44  23 S9        30.08F
POCATELLO      SUNNY     91  39  16 VRB7      30.06F
REXBURG        SUNNY     87  39  18 SW7       30.08F
$$

IDZ006-010-011-018-031-032-292100-
CENTRAL IDAHO MOUNTAINS


CITY           SKY/WX    TMP DP  RH WIND       PRES   REMARKS
MCCALL         SUNNY     85  38  18 SW6       30.11F
HAILEY         SUNNY     90  43  19 SE9       30.09F
STANLEY          N/A     84  28  13 W13       30.20F
SALMON         SUNNY     88  46  23 W3        30.00F
CHALLIS        SUNNY     89  36  15 E5        30.06F
$$

IDZ002-004-006-007-026-292100-
NORTHERN IDAHO


CITY           SKY/WX    TMP DP  RH WIND       PRES   REMARKS
LEWISTON       SUNNY     99  47  17 N5        29.88F HX  95
LOWELL           N/A     94  56  27 NW3       29.88F HX  92
COEUR D`ALENE  SUNNY     91  52  25 E5        29.92F
MULLAN PASS    CLOUDY    72  46  39 CALM      30.21F
$$




USA.gov is the U.S. government's official web portal to all federal, state and local government web resources and services.